User: anonymous   Login
Location: *
(37.5724°S, 58.0067°E)
Time: 04:23:57
(UTC+00:00)
Language:

Cosmos 1420 Rocket - Orbit

View from above orbital plane
View from above orbital plane
View from above satellite
View from above satellite

Ground track
Ground track

The orbit data is extracted from the following two-line orbital elements,

1 13649U 82109B   20333.84504478  .00000101  00000-0  42652-4 0  9999
2 13649  73.9998 208.4517 0017410  68.1310   2.8704 14.37192296992723
Epoch (UTC): 28 November 2020 20:16:51
Eccentricity: 0.0017410
inclination: 73.9998°
perigee height: 755 km
apogee height: 780 km
right ascension of ascending node: 208.4517°
argument of perigee: 68.1310°
revolutions per day: 14.37192296
mean anomaly at epoch: 2.8704°
orbit number at epoch: 99272

The dashed part of the orbit path shows where the satellite is in the earth's shadow,  

DLR